ABS001 DXXX-DNMM

Flight info

Callsign ABS001
Flight time 0h 32m
Altitude 19000
Route MONOS2S MONOS L433 TYE TYE1N
Aircraft A20N/M-SDE2E3FGHIRWXY/LB1

Departure

Time 2026-05-09 13:44
Airport Lomé–Tokoin International Airport (DXXX)

Arrival

Time 2026-05-09 14:17
Airport Murtala Muhammed International Airport (DNMM)
Time Latitude Longitude Altitude Speed Heading
2026-05-09 13:16 6.16783 1.25224 75 ft 0 kts 306°
2026-05-09 13:29 6.16779 1.25230 61 ft 1 kts 304°
2026-05-09 13:29 6.16774 1.25236 60 ft 1 kts 302°
2026-05-09 13:30 6.16765 1.25253 71 ft 3 kts 297°
2026-05-09 13:30 6.16756 1.25273 68 ft 3 kts 291°
2026-05-09 13:30 6.16748 1.25294 66 ft 3 kts 286°
2026-05-09 13:30 6.16743 1.25316 67 ft 3 kts 281°
2026-05-09 13:31 6.16741 1.25328 69 ft 0 kts 278°
2026-05-09 13:34 6.16741 1.25327 69 ft 1 kts 279°
2026-05-09 13:34 6.16776 1.25318 67 ft 11 kts 19°
2026-05-09 13:34 6.16860 1.25425 74 ft 28 kts 46°
2026-05-09 13:34 6.17026 1.25570 68 ft 34 kts 44°
2026-05-09 13:35 6.17226 1.25737 71 ft 35 kts 38°
2026-05-09 13:35 6.17280 1.25778 74 ft 0 kts 36°
2026-05-09 13:35 6.17282 1.25779 74 ft 3 kts 36°
2026-05-09 13:36 6.17332 1.25816 64 ft 16 kts 36°
2026-05-09 13:36 6.17457 1.25918 68 ft 30 kts 39°
2026-05-09 13:36 6.17642 1.26062 74 ft 24 kts 38°
2026-05-09 13:36 6.17710 1.26130 71 ft 9 kts 82°
2026-05-09 13:37 6.17694 1.26162 68 ft 0 kts 122°
2026-05-09 13:43 6.17679 1.26187 70 ft 10 kts 122°
2026-05-09 13:43 6.17593 1.26232 71 ft 16 kts 195°
2026-05-09 13:43 6.17561 1.26200 66 ft 0 kts 217°
2026-05-09 13:44 6.17395 1.26070 70 ft 76 kts 219°
2026-05-09 13:44 6.16773 1.25581 84 ft 147 kts 218°
2026-05-09 13:44 6.15916 1.24877 565 ft 167 kts 219°
2026-05-09 13:44 6.15019 1.24153 1466 ft 165 kts 213°
2026-05-09 13:45 6.14000 1.23582 2311 ft 175 kts 205°
2026-05-09 13:45 6.12747 1.23382 2929 ft 196 kts 170°
2026-05-09 13:45 6.11478 1.24035 3538 ft 221 kts 135°
2026-05-09 13:45 6.10691 1.25435 4265 ft 245 kts 104°
2026-05-09 13:46 6.10583 1.27217 5111 ft 266 kts 87°
2026-05-09 13:46 6.10969 1.29032 6419 ft 267 kts 73°
2026-05-09 13:46 6.11529 1.30803 7830 ft 263 kts 73°
2026-05-09 13:46 6.12078 1.32527 9370 ft 257 kts 73°
2026-05-09 13:47 6.12623 1.34235 10589 ft 263 kts 73°
2026-05-09 13:47 6.13205 1.36071 11194 ft 289 kts 73°
2026-05-09 13:47 6.13842 1.38084 11691 ft 315 kts 73°
2026-05-09 13:47 6.14519 1.40221 12459 ft 329 kts 73°
2026-05-09 13:48 6.15185 1.42317 13374 ft 336 kts 73°
2026-05-09 13:48 6.15903 1.44581 14258 ft 344 kts 73°
2026-05-09 13:48 6.16638 1.46898 15175 ft 349 kts 73°
2026-05-09 13:48 6.17380 1.49241 16059 ft 355 kts 73°
2026-05-09 13:49 6.18135 1.51624 16897 ft 361 kts 73°
2026-05-09 13:49 6.18902 1.54046 17723 ft 367 kts 73°
2026-05-09 13:49 6.19683 1.56510 18448 ft 373 kts 73°
2026-05-09 13:49 6.20471 1.58995 18768 ft 374 kts 73°
2026-05-09 13:50 6.21261 1.61488 18888 ft 375 kts 73°
2026-05-09 13:50 6.22050 1.63979 18920 ft 375 kts 73°
2026-05-09 13:50 6.22842 1.66478 18921 ft 375 kts 73°
2026-05-09 13:50 6.23632 1.68973 18923 ft 375 kts 73°
2026-05-09 13:51 6.24423 1.71468 18920 ft 375 kts 73°
2026-05-09 13:51 6.25214 1.73966 18921 ft 375 kts 73°
2026-05-09 13:51 6.26003 1.76461 18921 ft 375 kts 73°
2026-05-09 13:51 6.26689 1.78985 18915 ft 374 kts 79°
2026-05-09 13:52 6.27105 1.81527 18916 ft 374 kts 82°
2026-05-09 13:52 6.27505 1.84113 18917 ft 374 kts 81°
2026-05-09 13:52 6.27917 1.86726 18916 ft 374 kts 81°
2026-05-09 13:52 6.28321 1.89284 18913 ft 374 kts 81°
2026-05-09 13:53 6.28730 1.91861 18912 ft 375 kts 81°
2026-05-09 13:53 6.29140 1.94452 18911 ft 375 kts 81°
2026-05-09 13:53 6.29550 1.97040 18910 ft 374 kts 81°
2026-05-09 13:53 6.29958 1.99622 18913 ft 375 kts 81°
2026-05-09 13:54 6.30367 2.02208 18912 ft 375 kts 81°
2026-05-09 13:54 6.30775 2.04796 18908 ft 375 kts 81°
2026-05-09 13:54 6.31184 2.07383 18911 ft 375 kts 81°
2026-05-09 13:54 6.31591 2.09967 18910 ft 375 kts 81°
2026-05-09 13:55 6.31999 2.12554 18908 ft 375 kts 81°
2026-05-09 13:55 6.32408 2.15141 18910 ft 375 kts 81°
2026-05-09 13:55 6.32814 2.17720 18909 ft 375 kts 81°
2026-05-09 13:55 6.33222 2.20306 18910 ft 374 kts 81°
2026-05-09 13:56 6.33628 2.22889 18906 ft 374 kts 81°
2026-05-09 13:56 6.34035 2.25473 18909 ft 374 kts 81°
2026-05-09 13:56 6.34442 2.28057 18912 ft 375 kts 81°
2026-05-09 13:56 6.34849 2.30644 18910 ft 374 kts 81°
2026-05-09 13:57 6.35118 2.32358 18912 ft 375 kts 81°
2026-05-09 13:57 6.35525 2.34942 18911 ft 374 kts 81°
2026-05-09 13:57 6.36344 2.38341 18913 ft 375 kts 70°
2026-05-09 13:57 6.37473 2.40646 18911 ft 377 kts 59°
2026-05-09 13:58 6.38386 2.41959 18912 ft 378 kts 53°
2026-05-09 13:58 6.40081 2.43984 18912 ft 378 kts 51°
2026-05-09 13:58 6.41771 2.46005 18914 ft 378 kts 52°
2026-05-09 13:58 6.43457 2.48031 18910 ft 378 kts 52°
2026-05-09 13:59 6.45146 2.50063 18909 ft 378 kts 52°
2026-05-09 13:59 6.46827 2.52087 18910 ft 378 kts 52°
2026-05-09 13:59 6.48515 2.54119 18911 ft 377 kts 52°
2026-05-09 13:59 6.50196 2.56143 18890 ft 376 kts 52°
2026-05-09 14:00 6.51866 2.58153 18605 ft 373 kts 52°
2026-05-09 14:00 6.52991 2.59506 18273 ft 372 kts 52°
2026-05-09 14:00 6.55177 2.62139 17385 ft 368 kts 52°
2026-05-09 14:00 6.56804 2.64096 16716 ft 363 kts 52°
2026-05-09 14:01 6.58415 2.66035 16047 ft 359 kts 52°
2026-05-09 14:01 6.60000 2.67942 15401 ft 355 kts 52°
2026-05-09 14:01 6.61571 2.69834 14770 ft 350 kts 52°
2026-05-09 14:01 6.63124 2.71706 14155 ft 347 kts 52°
2026-05-09 14:02 6.64662 2.73559 13549 ft 343 kts 52°
2026-05-09 14:02 6.66177 2.75384 12914 ft 338 kts 52°
2026-05-09 14:02 6.67672 2.77186 12297 ft 333 kts 52°
2026-05-09 14:02 6.69130 2.78971 11714 ft 327 kts 55°
2026-05-09 14:03 6.70338 2.80878 11122 ft 321 kts 63°
2026-05-09 14:03 6.71224 2.82913 10537 ft 315 kts 71°
2026-05-09 14:03 6.71855 2.84996 10137 ft 306 kts 73°
2026-05-09 14:03 6.72452 2.86983 10000 ft 288 kts 73°
2026-05-09 14:04 6.73020 2.88855 9885 ft 271 kts 73°
2026-05-09 14:04 6.73563 2.90634 9589 ft 262 kts 73°
2026-05-09 14:04 6.74098 2.92388 9054 ft 264 kts 73°
2026-05-09 14:04 6.74640 2.94162 8530 ft 265 kts 73°
2026-05-09 14:05 6.75182 2.95940 8015 ft 266 kts 73°
2026-05-09 14:05 6.75723 2.97717 7518 ft 267 kts 73°
2026-05-09 14:05 6.76271 2.99517 7001 ft 269 kts 73°
2026-05-09 14:05 6.76820 3.01324 6501 ft 271 kts 73°
2026-05-09 14:06 6.77370 3.03133 6058 ft 270 kts 73°
2026-05-09 14:06 6.77918 3.04939 5609 ft 269 kts 74°
2026-05-09 14:06 6.78395 3.06506 5225 ft 268 kts 74°
2026-05-09 14:06 6.78923 3.08246 5049 ft 268 kts 74°
2026-05-09 14:07 6.79475 3.10063 4985 ft 272 kts 73°
2026-05-09 14:07 6.80018 3.11852 4978 ft 271 kts 74°
2026-05-09 14:07 6.80571 3.13670 4977 ft 272 kts 73°
2026-05-09 14:07 6.81121 3.15481 4982 ft 270 kts 74°
2026-05-09 14:08 6.81670 3.17289 4987 ft 268 kts 74°
2026-05-09 14:08 6.82148 3.19039 4984 ft 251 kts 80°
2026-05-09 14:08 6.82297 3.20732 4926 ft 237 kts 90°
2026-05-09 14:08 6.82305 3.22353 4859 ft 227 kts 90°
2026-05-09 14:09 6.82324 3.23910 4785 ft 218 kts 90°
2026-05-09 14:09 6.82348 3.25396 4721 ft 209 kts 90°
2026-05-09 14:09 6.82372 3.26842 4647 ft 201 kts 90°
2026-05-09 14:09 6.82394 3.28217 4569 ft 194 kts 90°
2026-05-09 14:10 6.81311 3.30472 4136 ft 189 kts 150°
2026-05-09 14:10 6.80066 3.30919 3839 ft 189 kts 169°
2026-05-09 14:10 6.78802 3.31050 3679 ft 175 kts 178°
2026-05-09 14:11 6.77637 3.31081 3577 ft 161 kts 179°
2026-05-09 14:11 6.76572 3.31095 3502 ft 144 kts 179°
2026-05-09 14:11 6.75653 3.31108 3499 ft 128 kts 179°
2026-05-09 14:11 6.74729 3.31119 3494 ft 132 kts 179°
2026-05-09 14:12 6.73812 3.31130 3502 ft 133 kts 179°
2026-05-09 14:12 6.72886 3.31141 3490 ft 131 kts 179°
2026-05-09 14:12 6.71984 3.31152 3287 ft 129 kts 179°
2026-05-09 14:12 6.71092 3.31163 2976 ft 128 kts 180°
2026-05-09 14:13 6.70203 3.31174 2618 ft 127 kts 180°
2026-05-09 14:14 6.64139 3.31247 1371 ft 122 kts 180°
2026-05-09 14:15 6.63338 3.31259 1386 ft 123 kts 179°
2026-05-09 14:15 6.62430 3.31279 1056 ft 131 kts 179°
2026-05-09 14:15 6.61533 3.31309 671 ft 125 kts 179°
2026-05-09 14:15 6.60715 3.31312 467 ft 115 kts 181°
2026-05-09 14:16 6.59850 3.31306 311 ft 127 kts 182°
2026-05-09 14:16 6.58974 3.31306 157 ft 123 kts 179°
2026-05-09 14:16 6.58150 3.31324 62 ft 107 kts 180°
2026-05-09 14:16 6.57593 3.31323 56 ft 65 kts 178°
2026-05-09 14:17 6.57181 3.31332 65 ft 54 kts 177°
2026-05-09 14:17 6.56841 3.31340 60 ft 35 kts 178°
2026-05-09 14:17 6.56704 3.31346 67 ft 20 kts 177°
2026-05-09 14:17 6.56556 3.31376 63 ft 24 kts 155°
2026-05-09 14:18 6.56416 3.31479 60 ft 24 kts 99°
2026-05-09 14:18 6.56509 3.31542 65 ft 20 kts 355°
2026-05-09 14:18 6.56665 3.31536 69 ft 25 kts 358°
2026-05-09 14:18 6.56855 3.31539 70 ft 30 kts
2026-05-09 14:19 6.57080 3.31544 67 ft 35 kts 359°
2026-05-09 14:19 6.57344 3.31534 62 ft 41 kts 359°
2026-05-09 14:19 6.57641 3.31530 57 ft 45 kts 359°
2026-05-09 14:19 6.57922 3.31529 59 ft 40 kts 358°
2026-05-09 14:20 6.58056 3.31582 64 ft 13 kts 88°
2026-05-09 14:20 6.58067 3.31620 70 ft 4 kts 70°
2026-05-09 14:20 6.58072 3.31632 69 ft 1 kts 66°
2026-05-09 14:21 6.58107 3.31699 87 ft 12 kts 63°
2026-05-09 14:21 6.58121 3.31729 91 ft 6 kts 65°
2026-05-09 14:21 6.58122 3.31733 92 ft 2 kts 76°
2026-05-09 14:21 6.58106 3.31758 93 ft 9 kts 131°
2026-05-09 14:22 6.58019 3.31806 96 ft 20 kts 152°
2026-05-09 14:22 6.57968 3.31847 94 ft 5 kts 71°
2026-05-09 14:22 6.57997 3.31897 94 ft 8 kts 69°
2026-05-09 14:22 6.58005 3.31915 94 ft 0 kts 65°